Weather in Zarechnoye

Russia / Ulyanovsk Oblast     53°43′16″N   47°35′32″E
temp.,
°C
wind,
m/s
gust,
m/s
humid.,
%
clouds,
%
prec.,
mm/h
press.,
hPa
HPBL,
m
17 may, mon
mon1701:00+19s225315 0.0 101612
04:00+18s335642 0.0 101629
07:00+20s395962 0.0 1016183
10:00+26ssw464164 0.0 1017535
13:00+30sw242521 0.0 10172960
16:00+27s233892 0.0 1016356
19:00+22nnw375933 0.0 1017161
22:00+18nne2268100 0.0 101733
18 may, tue
tue1801:00+17ese226237 0.0 101715
04:00+17e11595 0.0 101711
07:00+19ese25565 0.0 1017121
10:00+25ese46375 0.0 1016504
13:00+28ese67284 0.0 10161345
16:00+29ese56291 0.0 10151962
19:00+25e48490 0.0 1015184
22:00+19ene36490 0.0 101678
19 may, wed
wed1901:00+18e39665 0.0 1015149
04:00+16e410864 0.0 1015197
07:00+18e512750 0.0 1015364
10:00+23ese69561 0.0 1015642
13:00+26ese78465 0.0 10151185
16:00+26ese78420 0.0 10151588
19:00+24e510510 0.0 1014436
22:00+20ese716600 0.0 1015533
20 may, thu
thu2001:00+19ese616620 0.0 1015675
04:00+17ese615650 0.0 1014519
07:00+17se615684 0.0 1015657
10:00+20se81258100 0.0 1014931
13:00+23ese9114377 0.0 10131932
16:00+21se61255100 0.1 10121180
19:00+16w578685 1.8 1013341
22:00+14wnw128929 1.9 1013175
21 may, fri
fri2101:00+13sw1192100 0.1 101231
04:00+13s2492100 0.2 1013126
07:00+14sw368780 0.0 1014300
10:00+18sw466214 0.0 10141258
13:00+21sw574780 0.0 10152148
16:00+21sw674812 0.0 10152110
19:00+18w246747 0.0 1016108
22:00+15s387590 0.0 1016144